SL-16 R/B (28353 NORAD) Tracking and Keplerian Element Data

This shows tracking and keplerian element data for the satellite.

Feedback or suggestion? Click here.




ElementValue
Catalog28353
NameSL-16 R/B
Epoch Orbit72809
Epoch Day198.82475161
Epoch Year2018
RAAN328.732
Inclination71.0001
Eccentricity0.000649
Argument of Perigee305.2369
Mean Anonmoly54.8145
Mean Motion14.14210319
Decay Rate2.48E-06
L11 28353U 04021B 18198.82475161 .00000248 00000-0 15514-3 0 9992
L22 28353 71.0001 328.7320 0006490 305.2369 54.8145 14.14210319728093

Live tracking and technical data element details for SL-16 R/B (NORAD 28353). SL-16 R/B can be tracked NOW for your location showing map with azimuth and elevation plus other details from your city location.

Track the satellite on the map from your city or location and see movement details for azimuth, elevation, latitude, longitude, range, height, and movement on the map or in text.







IsCatalogInMostPopularTable: catalog: 28353, numindb: 29
Update: records affected: 1



GetName: 28353 SL-16 R/B

Hit Count: updated at: Wed, 18 Jul 2018 20:29:11 GMT